Latest METARs, TAFs and NOTAMs for MYNN


---------------------------------------------------------------------------
	(OBSERVATIONS)
MYNN 241500Z 14007KT 9999 RERA FEW014 BKN040 BKN080 26/24 A2986
    RE/1446Z=
MYNN 241400Z 13005KT 9999 RERS SCT104 BKN040 OVC080 25/23 A2986=
MYNN 241300Z 11008KT 9999 RERA BKN014 BKN040 OVC080 25/23 A2985=
---------------------------------------------------------------------------
	(TERMINAL AREA FORECAST)
MYNN 240930Z 2412/2512 10015KT 9000 -RA FEW015CB BKN040 OVC080
    BECMG
    FM241400 22020G30KT 6000 TSRA SCT012 BKN015CB BKN040 OVC080=
---------------------------------------------------------------------------
	(NOTAMS)


MYNN A0068/13 VOR Y RWY 14 FEEDER RTE FM MAJUR TO MUNIE NOT AVBL
    VOR Y RWY 14 FEEDER RTE FM MELON TO MUNIE NOT AVBL. SFC -
    UNL, 19 APR 19:55 2013 UNTIL PERM. CREATED: 19 APR 19:51
    2013

MYNN A0069/13 VOR Y RWY 09 FEEDER RTE FM MAJUR TO MUSSE NOT AVBL
    REMOVE PROCEDURE NOTE 'RADAR REQUIRED' FM APP CHART. SFC
    - UNL, 19 APR 19:55 2013 UNTIL PERM. CREATED: 19 APR 19:52
    2013

MYNN A0070/13 VOR Y RWY 32 FEEDER RTE FM PRUNE TO WELKS NOT AVBL
    REMOVE PROCEDURE NOTE 'RADAR REQUIRED' FM APP CHART. SFC
    - UNL, 19 APR 19:55 2013 UNTIL PERM. CREATED: 19 APR 19:54
    2013

MYNN A0117/14 WITH THE EXCEPTION OF MYNN AND MYGF RNAV PROC IN
    THE BAHAMAS ARE NOT AUTH DUE TO AIRSPACE CLASSIFICATION RESTRICTIONS.
    29 JUL 12:00 2014 UNTIL 31 OCT 21:00 2014. CREATED: 28 JUL
    16:23 2014

MYNN A0158/14 SIX TEMPORARY CRANES WITH RED OBSTRUCTION LIGHTS
    ON TOP LOCATION N 25 04 14.65 W 077 23 53.63 CRANES 427FT
    AMSL 3.81 NM NE OF RWY 27 ILS RWY 14, RNAV (GNSS) RWY 09
    RNAV (GNSS) RWY 14 RNAV (GNSS) RWY 32 VOR Z RWY 09 VOR Y
    RWY 09 VOR Z RWY 14 VOR Y RWY 14 VOR Z RWY 32 VOR Y RWY 32
    SRE RWY 09 SRE RWY 14 SRE RWY 32 CIRCLING CAT C OCA 860 /
    OCH 844 VIS CAT C 4600) CORRECTION. 01 OCT 16:00 2014 UNTIL
    30 DEC 22:00 2014. CREATED: 01 OCT 15:05 2014

MYNN A0165/14 CHECKLIST (A) SERIES YEAR=2010 0277 YEAR=2013 0068
    0069 0070 YEAR=2014 0117 0128 0151 0152 0153 0154 0155 0156
    0157 0158 0159 0160 0161 0162 0163 0164 LATEST PUBLICATIONS
    AIP AMDT 02/14 EFFECTIVE AUGUST 21, 2014 AIC 04/14. 01 OCT
    16:00 2014 UNTIL 31 OCT 22:00 2014. CREATED: 01 OCT 15:07
    2014

MYNN B0018/14 CHECKLIST (B) SERIES YEAR=2014 0012 0014 0017 LATEST
    PUBLICATIONS AIP AMDT 02/14 EFFECTIVE AUGUST 21 2014 AIC
    04/14. 02 OCT 20:00 2014 UNTIL 31 OCT 23:59 2014. CREATED:
    02 OCT 18:19 2014

---------------------------------------------------------------------------